TimeCST,TemperatureF,Dew PointF,Humidity,Sea Level PressureIn,VisibilityMPH,Wind Direction,Wind SpeedMPH,Gust SpeedMPH,PrecipitationIn,Events,Conditions,WindDirDegrees,DateUTC
12:13 AM,32.0,19.4,60,30.22,10.0,SSE,8.1,-,N/A,,Overcast,160,2012-11-17 06:13:00
12:33 AM,30.2,19.4,64,30.21,10.0,SSE,9.2,-,N/A,,Scattered Clouds,150,2012-11-17 06:33:00
12:53 AM,32.0,19.4,60,30.21,10.0,SSE,9.2,-,N/A,,Clear,150,2012-11-17 06:53:00
1:13 AM,32.0,19.4,60,30.19,10.0,SSE,11.5,-,N/A,,Clear,150,2012-11-17 07:13:00
1:33 AM,32.0,21.2,64,30.19,10.0,SSE,9.2,-,N/A,,Clear,150,2012-11-17 07:33:00
1:53 AM,30.2,21.2,69,30.18,10.0,SSE,9.2,-,N/A,,Clear,150,2012-11-17 07:53:00
2:13 AM,32.0,21.2,64,30.18,10.0,SSE,8.1,-,N/A,,Clear,150,2012-11-17 08:13:00
2:33 AM,32.0,21.2,64,30.17,10.0,SSE,9.2,-,N/A,,Clear,160,2012-11-17 08:33:00
2:53 AM,32.0,21.2,64,30.16,10.0,SSE,10.4,-,N/A,,Clear,160,2012-11-17 08:53:00
3:13 AM,32.0,21.2,64,30.15,10.0,SSE,9.2,-,N/A,,Clear,160,2012-11-17 09:13:00
3:33 AM,33.8,23.0,65,30.15,10.0,SSE,9.2,-,N/A,,Clear,160,2012-11-17 09:33:00
3:54 AM,33.8,23.0,65,30.14,10.0,SSE,10.4,-,N/A,,Clear,160,2012-11-17 09:54:00
4:14 AM,33.8,24.8,70,30.14,10.0,South,9.2,16.1,N/A,,Clear,170,2012-11-17 10:14:00
4:33 AM,33.8,24.8,70,30.14,10.0,South,9.2,-,N/A,,Clear,170,2012-11-17 10:33:00
4:53 AM,33.8,24.8,70,30.14,10.0,South,9.2,16.1,N/A,,Clear,170,2012-11-17 10:53:00
5:13 AM,33.8,24.8,70,30.14,10.0,South,8.1,-,N/A,,Clear,170,2012-11-17 11:13:00
5:33 AM,33.8,24.8,70,30.14,10.0,SSE,9.2,-,N/A,,Clear,160,2012-11-17 11:33:00
5:53 AM,33.8,24.8,70,30.13,10.0,SSE,8.1,-,N/A,,Clear,160,2012-11-17 11:53:00
6:13 AM,33.8,24.8,70,30.13,10.0,South,8.1,-,N/A,,Clear,170,2012-11-17 12:13:00
6:33 AM,33.8,26.6,75,30.13,10.0,SSE,8.1,-,N/A,,Clear,160,2012-11-17 12:33:00
6:53 AM,33.8,26.6,75,30.13,10.0,SSE,6.9,-,N/A,,Clear,160,2012-11-17 12:53:00
7:13 AM,33.8,26.6,75,30.13,10.0,South,10.4,-,N/A,,Clear,170,2012-11-17 13:13:00
7:33 AM,33.8,26.6,75,30.13,10.0,SSE,9.2,-,N/A,,Clear,160,2012-11-17 13:33:00
7:53 AM,33.8,26.6,75,30.13,10.0,SSE,9.2,-,N/A,,Clear,160,2012-11-17 13:53:00
8:13 AM,33.8,26.6,75,30.13,10.0,SSE,10.4,-,N/A,,Clear,160,2012-11-17 14:13:00
8:33 AM,35.6,26.6,70,30.13,10.0,SSE,9.2,16.1,N/A,,Clear,160,2012-11-17 14:33:00
8:53 AM,35.6,28.4,75,30.13,10.0,SSE,8.1,-,N/A,,Clear,160,2012-11-17 14:53:00
9:13 AM,37.4,28.4,70,30.13,10.0,South,11.5,18.4,N/A,,Clear,170,2012-11-17 15:13:00
9:33 AM,37.4,28.4,70,30.13,10.0,South,13.8,18.4,N/A,,Clear,170,2012-11-17 15:33:00
9:53 AM,39.2,28.4,65,30.13,10.0,South,11.5,17.3,N/A,,Clear,170,2012-11-17 15:53:00
10:13 AM,39.2,28.4,65,30.13,10.0,South,10.4,16.1,N/A,,Clear,180,2012-11-17 16:13:00
10:33 AM,39.2,28.4,65,30.13,10.0,South,9.2,17.3,N/A,,Clear,170,2012-11-17 16:33:00
10:53 AM,41.0,30.2,65,30.13,10.0,South,9.2,16.1,N/A,,Clear,170,2012-11-17 16:53:00
11:13 AM,42.8,30.2,61,30.13,10.0,South,9.2,-,N/A,,Clear,180,2012-11-17 17:13:00
11:34 AM,42.8,30.2,61,30.13,10.0,South,10.4,-,N/A,,Clear,180,2012-11-17 17:34:00
11:53 AM,42.8,30.2,61,30.13,10.0,South,6.9,-,N/A,,Clear,170,2012-11-17 17:53:00
12:13 PM,44.6,30.2,57,30.13,10.0,South,3.5,-,N/A,,Clear,190,2012-11-17 18:13:00
12:33 PM,44.6,30.2,57,30.12,10.0,South,5.8,-,N/A,,Clear,180,2012-11-17 18:33:00
12:53 PM,44.6,30.2,57,30.11,10.0,South,5.8,-,N/A,,Clear,180,2012-11-17 18:53:00
1:13 PM,46.4,30.2,53,30.11,10.0,South,8.1,-,N/A,,Clear,180,2012-11-17 19:13:00
1:33 PM,46.4,32.0,57,30.11,10.0,SSW,5.8,-,N/A,,Clear,200,2012-11-17 19:33:00
1:53 PM,46.4,32.0,57,30.11,10.0,South,8.1,-,N/A,,Scattered Clouds,190,2012-11-17 19:53:00
2:13 PM,46.4,32.0,57,30.11,10.0,South,5.8,-,N/A,,Clear,180,2012-11-17 20:13:00
2:33 PM,46.4,32.0,57,30.11,10.0,South,4.6,-,N/A,,Clear,170,2012-11-17 20:33:00
2:54 PM,46.4,32.0,57,30.10,10.0,South,4.6,-,N/A,,Scattered Clouds,170,2012-11-17 20:54:00
3:13 PM,46.4,32.0,57,30.10,10.0,South,3.5,-,N/A,,Clear,170,2012-11-17 21:13:00
3:33 PM,46.4,32.0,57,30.10,10.0,Calm,Calm,-,N/A,,Clear,0,2012-11-17 21:33:00
3:53 PM,46.4,32.0,57,30.10,10.0,Calm,Calm,-,N/A,,Clear,0,2012-11-17 21:53:00
4:13 PM,46.4,32.0,57,30.10,10.0,Calm,Calm,-,N/A,,Clear,0,2012-11-17 22:13:00
4:33 PM,44.6,32.0,61,30.10,10.0,SSE,4.6,-,N/A,,Clear,160,2012-11-17 22:33:00
4:53 PM,42.8,32.0,66,30.10,10.0,SSE,3.5,-,N/A,,Clear,160,2012-11-17 22:53:00
5:13 PM,42.8,32.0,66,30.11,10.0,SSE,3.5,-,N/A,,Clear,150,2012-11-17 23:13:00
5:33 PM,42.8,32.0,66,30.11,10.0,SSE,4.6,-,N/A,,Clear,150,2012-11-17 23:33:00
5:53 PM,42.8,32.0,66,30.11,10.0,SSE,3.5,-,N/A,,Scattered Clouds,150,2012-11-17 23:53:00
6:13 PM,42.8,32.0,66,30.11,10.0,Calm,Calm,-,N/A,,Scattered Clouds,0,2012-11-18 00:13:00
6:33 PM,42.8,32.0,66,30.12,10.0,Calm,Calm,-,N/A,,Scattered Clouds,0,2012-11-18 00:33:00
6:53 PM,42.8,32.0,66,30.12,10.0,SE,3.5,-,N/A,,Mostly Cloudy,140,2012-11-18 00:53:00
7:13 PM,42.8,32.0,66,30.12,10.0,Calm,Calm,-,N/A,,Scattered Clouds,0,2012-11-18 01:13:00
7:34 PM,41.0,30.2,65,30.13,10.0,South,3.5,-,N/A,,Scattered Clouds,180,2012-11-18 01:34:00
7:53 PM,42.8,32.0,66,30.13,10.0,South,6.9,-,N/A,,Light Drizzle,170,2012-11-18 01:53:00
8:13 PM,42.8,33.8,70,30.13,10.0,SSE,6.9,-,N/A,,Drizzle,160,2012-11-18 02:13:00
8:33 PM,42.8,33.8,70,30.13,10.0,SSE,4.6,-,N/A,,Mostly Cloudy,150,2012-11-18 02:33:00
8:53 PM,42.8,33.8,70,30.13,10.0,SSE,4.6,-,N/A,,Scattered Clouds,150,2012-11-18 02:53:00
9:13 PM,44.6,33.8,66,30.13,10.0,SSE,5.8,-,N/A,,Mostly Cloudy,160,2012-11-18 03:13:00
9:33 PM,44.6,33.8,66,30.13,10.0,SSE,5.8,-,N/A,,Overcast,160,2012-11-18 03:33:00
9:53 PM,44.6,33.8,66,30.12,10.0,SSE,6.9,-,N/A,,Mostly Cloudy,150,2012-11-18 03:53:00
10:13 PM,46.4,33.8,62,30.12,10.0,SSE,6.9,-,N/A,,Scattered Clouds,150,2012-11-18 04:13:00
10:33 PM,46.4,33.8,62,30.12,10.0,SSE,6.9,-,N/A,,Scattered Clouds,150,2012-11-18 04:33:00
10:53 PM,46.4,33.8,62,30.12,10.0,SSE,8.1,-,N/A,,Scattered Clouds,150,2012-11-18 04:53:00
11:13 PM,46.4,33.8,62,30.12,10.0,SSE,8.1,-,N/A,,Clear,150,2012-11-18 05:13:00
11:33 PM,44.6,33.8,66,30.12,10.0,SSE,8.1,-,N/A,,Clear,150,2012-11-18 05:33:00
11:53 PM,44.6,33.8,66,30.12,10.0,SSE,6.9,-,N/A,,Clear,150,2012-11-18 05:53:00